Simultaneous Nadir Overpasses (SNOs) Predictions

Prediction of SNOs between METOP-A and TERRA Satellite Orbit:

Table of predicted SNOs for the next 14.0 days since TLE Epoch: 12/2/2013
Index Date (METOP-A) Time (METOP-A) Lat,Lon (METOP-A) SZA (METOP-A ) Date (TERRA) Time (TERRA) Lat,Lon (TERRA) SZA (TERRA ) Distance(km) Time Diff (sec)
1 12/04/2013 04:49:22 -81.32, -24.90 73.51 12/04/2013 04:49:31 -81.32, -24.73 73.49 2.81 9
2 12/04/2013 05:40:01 81.33, 143.01 106.56 12/04/2013 05:38:57 81.33, 143.06 106.54 1.01 64
3 12/07/2013 00:23:40 -81.33, 42.02 73.14 12/07/2013 00:23:46 -81.33, 41.86 73.16 2.69 6
4 12/07/2013 01:14:20 81.33,-150.48 106.89 12/07/2013 01:13:12 81.34,-150.37 106.87 2.12 68
5 12/09/2013 19:57:59 -81.33, 108.48 72.89 12/09/2013 19:58:01 -81.33, 108.29 72.91 3.13 2
6 12/
